******** Week 363 almanac for PRN-1 ******** ID: 1 Health: 0 Eccentricity: 0.001658439636 Time of Applicability(s): 589824 Orbital Inclination(rad): 0.9579674068 Rate of Right Ascen(r/s): -7.806039438e-09 SQRT(A) (m 1/2): 5153.575195 Right Ascen at Week(rad): 2.757905336 Argument of Perigee(rad): 0.1305977165 Mean Anom(rad): 3.054458352 Af0(s): 0.0002441904785 Af1(s/s): -7.275958e-12 week: 363 ******** Week 363 almanac for PRN-2 ******** ID: 2 Health: 0 Eccentricity: 0.01684999466 Time of Applicability(s): 589824 Orbital Inclination(rad): 0.9630906629 Rate of Right Ascen(r/s): -7.691748963e-09 SQRT(A) (m 1/2): 5153.538574 Right Ascen at Week(rad): 2.595524706 Argument of Perigee(rad): -0.7961337822 Mean Anom(rad): -1.730230336 Af0(s): 5.351087646e-05 Af1(s/s): 7.275958e-12 week: 363 ******** Week 363 almanac for PRN-3 ******** ID: 3 Health: 0 Eccentricity: 0.006598472595 Time of Applicability(s): 589824 Orbital Inclination(rad): 0.993788255 Rate of Right Ascen(r/s): -7.817468486e-09 SQRT(A) (m 1/2): 5153.568359 Right Ascen at Week(rad): -2.537764112 Argument of Perigee(rad): 1.20363825 Mean Anom(rad): 0.9659787117 Af0(s): 0.0004137671997 Af1(s/s): -1.455192e-11 week: 363 ******** Week 363 almanac for PRN-4 ******** ID: 4 Health: 0 Eccentricity: 0.003711223602 Time of Applicability(s): 589824 Orbital Inclination(rad): 0.970556835 Rate of Right Ascen(r/s): -8.023191341e-09 SQRT(A) (m 1/2): 5153.672363 Right Ascen at Week(rad): -1.467597545 Argument of Perigee(rad): -2.871634881 Mean Anom(rad): -2.358639648 Af0(s): 3.994473877e-05 Af1(s/s): 0 week: 363 ******** Week 363 almanac for PRN-5 ******** ID: 5 Health: 0 Eccentricity: 0.005443096161 Time of Applicability(s): 589824 Orbital Inclination(rad): 0.9803359626 Rate of Right Ascen(r/s): -7.931758961e-09 SQRT(A) (m 1/2): 5153.671387 Right Ascen at Week(rad): -2.597829422 Argument of Perigee(rad): 1.417172795 Mean Anom(rad): -1.686422376 Af0(s): -0.0001823891846 Af1(s/s): 0 week: 363 ******** Week 363 almanac for PRN-6 ******** ID: 6 Health: 0 Eccentricity: 0.00382232666 Time of Applicability(s): 589824 Orbital Inclination(rad): 0.986807444 Rate of Right Ascen(r/s): -7.531742299e-09 SQRT(A) (m 1/2): 5153.612305 Right Ascen at Week(rad): 2.709171111 Argument of Perigee(rad): -0.5443175033 Mean Anom(rad): 2.260658497 Af0(s): -0.0004838589111 Af1(s/s): 0 week: 363 ******** Week 363 almanac for PRN-7 ******** ID: 7 Health: 0 Eccentricity: 0.02064180374 Time of Applicability(s): 589824 Orbital Inclination(rad): 0.9511903276 Rate of Right Ascen(r/s): -7.783181343e-09 SQRT(A) (m 1/2): 5153.569336 Right Ascen at Week(rad): -0.4588718522 Argument of Perigee(rad): -1.983562994 Mean Anom(rad): 1.416331278 Af0(s): -0.0001318930054 Af1(s/s): -3.637979e-12 week: 363 ******** Week 363 almanac for PRN-8 ******** ID: 8 Health: 0 Eccentricity: 0.01159572601 Time of Applicability(s): 589824 Orbital Inclination(rad): 0.9428972439 Rate of Right Ascen(r/s): -8.251772291e-09 SQRT(A) (m 1/2): 5153.635742 Right Ascen at Week(rad): 1.58758323 Argument of Perigee(rad): 0.5331298549 Mean Anom(rad): -2.052023253 Af0(s): 0.0003723151123 Af1(s/s): -7.275958e-12 week: 363 ******** Week 363 almanac for PRN-9 ******** ID: 9 Health: 0 Eccentricity: 0.00334072113 Time of Applicability(s): 589824 Orbital Inclination(rad): 0.964744486 Rate of Right Ascen(r/s): -8.114623721e-09 SQRT(A) (m 1/2): 5153.710938 Right Ascen at Week(rad): -1.532043838 Argument of Perigee(rad): 2.055167989 Mean Anom(rad): -1.452022921 Af0(s): 0.0006036931274 Af1(s/s): -3.637979e-12 week: 363 ******** Week 363 almanac for PRN-10 ******** ID: 10 Health: 0 Eccentricity: 0.01092815399 Time of Applicability(s): 589824 Orbital Inclination(rad): 0.9933208702 Rate of Right Ascen(r/s): -7.806039438e-09 SQRT(A) (m 1/2): 5153.60498 Right Ascen at Week(rad): -2.540272935 Argument of Perigee(rad): -2.255024039 Mean Anom(rad): -0.0292265285 Af0(s): -0.0004665244019 Af1(s/s): 0 week: 363 ******** Week 363 almanac for PRN-11 ******** ID: 11 Health: 0 Eccentricity: 0.002209663391 Time of Applicability(s): 589824 Orbital Inclination(rad): 0.963683882 Rate of Right Ascen(r/s): -7.760323248e-09 SQRT(A) (m 1/2): 5153.542969 Right Ascen at Week(rad): 2.727384885 Argument of Perigee(rad): -2.315455991 Mean Anom(rad): -2.890292072 Af0(s): -0.000309760144 Af1(s/s): 1.455192e-11 week: 363 ******** Week 363 almanac for PRN-12 ******** ID: 12 Health: 0 Eccentricity: 0.008955478668 Time of Applicability(s): 589824 Orbital Inclination(rad): 0.9592916636 Rate of Right Ascen(r/s): -8.000333246e-09 SQRT(A) (m 1/2): 5153.701172 Right Ascen at Week(rad): 0.6586859577 Argument of Perigee(rad): 1.568018234 Mean Anom(rad): 0.7302658605 Af0(s): -0.0004808442139 Af1(s/s): 0 week: 363 ******** Week 363 almanac for PRN-13 ******** ID: 13 Health: 0 Eccentricity: 0.01007938385 Time of Applicability(s): 589824 Orbital Inclination(rad): 0.9761414838 Rate of Right Ascen(r/s): -7.931758961e-09 SQRT(A) (m 1/2): 5153.624023 Right Ascen at Week(rad): -1.356535613 Argument of Perigee(rad): 0.9938296759 Mean Anom(rad): -2.285295068 Af0(s): 0.0005388771362 Af1(s/s): 0 week: 363 ******** Week 363 almanac for PRN-14 ******** ID: 14 Health: 0 Eccentricity: 0.006859779358 Time of Applicability(s): 589824 Orbital Inclination(rad): 0.9426515673 Rate of Right Ascen(r/s): -8.126052768e-09 SQRT(A) (m 1/2): 5153.595215 Right Ascen at Week(rad): 0.6036454087 Argument of Perigee(rad): -2.737295465 Mean Anom(rad): 0.5886995822 Af0(s): 0.0005856049438 Af1(s/s): 0 week: 363 ******** Week 363 almanac for PRN-15 ******** ID: 15 Health: 0 Eccentricity: 0.01664400101 Time of Applicability(s): 589824 Orbital Inclination(rad): 0.9427054964 Rate of Right Ascen(r/s): -8.377491813e-09 SQRT(A) (m 1/2): 5153.648926 Right Ascen at Week(rad): -1.676774701 Argument of Perigee(rad): 1.505586789 Mean Anom(rad): -3.0455522 Af0(s): 0.0003150358643 Af1(s/s): 3.637979e-12 week: 363 ******** Week 363 almanac for PRN-16 ******** ID: 16 Health: 0 Eccentricity: 0.01501846313 Time of Applicability(s): 589824 Orbital Inclination(rad): 0.9583928468 Rate of Right Ascen(r/s): -8.023191341e-09 SQRT(A) (m 1/2): 5153.601562 Right Ascen at Week(rad): 0.6756151734 Argument of Perigee(rad): 0.9316030861 Mean Anom(rad): -1.012073786 Af0(s): 0.0001854038818 Af1(s/s): 7.275958e-12 week: 363 ******** Week 363 almanac for PRN-17 ******** ID: 17 Health: 0 Eccentricity: 0.01260757446 Time of Applicability(s): 589824 Orbital Inclination(rad): 0.9585486417 Rate of Right Ascen(r/s): -8.023191341e-09 SQRT(A) (m 1/2): 5153.549805 Right Ascen at Week(rad): 1.692736565 Argument of Perigee(rad): -1.117321121 Mean Anom(rad): -2.10127692 Af0(s): -7.838212891e-05 Af1(s/s): -1.091394e-11 week: 363 ******** Week 363 almanac for PRN-18 ******** ID: 18 Health: 0 Eccentricity: 0.005804538727 Time of Applicability(s): 589824 Orbital Inclination(rad): 0.9717612496 Rate of Right Ascen(r/s): -7.680319916e-09 SQRT(A) (m 1/2): 5153.592285 Right Ascen at Week(rad): 2.703770345 Argument of Perigee(rad): -2.869065388 Mean Anom(rad): 2.197287414 Af0(s): -0.0003090064697 Af1(s/s): 1.091394e-11 week: 363 ******** Week 363 almanac for PRN-19 ******** ID: 19 Health: 0 Eccentricity: 0.01125001907 Time of Applicability(s): 589824 Orbital Inclination(rad): 0.9577217302 Rate of Right Ascen(r/s): -7.988904198e-09 SQRT(A) (m 1/2): 5153.669922 Right Ascen at Week(rad): 1.736627291 Argument of Perigee(rad): 2.942550408 Mean Anom(rad): -0.3153566394 Af0(s): 0.0005494285767 Af1(s/s): 0 week: 363 ******** Week 363 almanac for PRN-20 ******** ID: 20 Health: 0 Eccentricity: 0.002233028412 Time of Applicability(s): 589824 Orbital Inclination(rad): 0.9601485357 Rate of Right Ascen(r/s): -8.171768958e-09 SQRT(A) (m 1/2): 5153.705078 Right Ascen at Week(rad): -1.526560681 Argument of Perigee(rad): -1.953052281 Mean Anom(rad): 0.6741961663 Af0(s): 6.180129394e-05 Af1(s/s): 2.182787e-11 week: 363 ******** Week 363 almanac for PRN-21 ******** ID: 21 Health: 0 Eccentricity: 0.0008106231689 Time of Applicability(s): 589824 Orbital Inclination(rad): 0.9631865367 Rate of Right Ascen(r/s): -8.137481816e-09 SQRT(A) (m 1/2): 5153.726562 Right Ascen at Week(rad): -2.532301553 Argument of Perigee(rad): -0.2559429718 Mean Anom(rad): 0.3723584816 Af0(s): 0.0003255873047 Af1(s/s): 3.637979e-12 week: 363 ******** Week 363 almanac for PRN-22 ******** ID: 22 Health: 0 Eccentricity: 0.01204681396 Time of Applicability(s): 589824 Orbital Inclination(rad): 0.9578475645 Rate of Right Ascen(r/s): -7.988904198e-09 SQRT(A) (m 1/2): 5153.564941 Right Ascen at Week(rad): 0.6789722544 Argument of Perigee(rad): -0.9933840125 Mean Anom(rad): -1.453837408 Af0(s): -2.185655518e-05 Af1(s/s): 7.275958e-12 week: 363 ******** Week 363 almanac for PRN-23 ******** ID: 23 Health: 0 Eccentricity: 0.00606918335 Time of Applicability(s): 589824 Orbital Inclination(rad): 0.9883174563 Rate of Right Ascen(r/s): -7.840326581e-09 SQRT(A) (m 1/2): 5153.661621 Right Ascen at Week(rad): -2.572473049 Argument of Perigee(rad): -2.738179676 Mean Anom(rad): 1.044581745 Af0(s): 0.0004974250488 Af1(s/s): 3.637979e-12 week: 363 ******** Week 363 almanac for PRN-24 ******** ID: 24 Health: 0 Eccentricity: 0.01795959473 Time of Applicability(s): 589824 Orbital Inclination(rad): 0.9351374583 Rate of Right Ascen(r/s): -7.977475151e-09 SQRT(A) (m 1/2): 5153.59668 Right Ascen at Week(rad): -0.5678211899 Argument of Perigee(rad): 1.138321603 Mean Anom(rad): 2.399090152 Af0(s): -4.823515625e-05 Af1(s/s): 1.818989e-11 week: 363 ******** Week 363 almanac for PRN-25 ******** ID: 25 Health: 0 Eccentricity: 0.01290273666 Time of Applicability(s): 589824 Orbital Inclination(rad): 0.9477089102 Rate of Right Ascen(r/s): -8.080336578e-09 SQRT(A) (m 1/2): 5153.654297 Right Ascen at Week(rad): 0.5645903178 Argument of Perigee(rad): 1.159146441 Mean Anom(rad): 0.6107816402 Af0(s): 0.000342921814 Af1(s/s): -3.637979e-12 week: 363 ******** Week 363 almanac for PRN-26 ******** ID: 26 Health: 0 Eccentricity: 0.01101446152 Time of Applicability(s): 589824 Orbital Inclination(rad): 0.9285101819 Rate of Right Ascen(r/s): -8.240343243e-09 SQRT(A) (m 1/2): 5153.668457 Right Ascen at Week(rad): 0.4895900422 Argument of Perigee(rad): 0.7111970862 Mean Anom(rad): -0.2100842117 Af0(s): -0.0002735837769 Af1(s/s): -3.637979e-12 week: 363 ******** Week 363 almanac for PRN-27 ******** ID: 27 Health: 0 Eccentricity: 0.01438331604 Time of Applicability(s): 589824 Orbital Inclination(rad): 0.9519932707 Rate of Right Ascen(r/s): -8.137481816e-09 SQRT(A) (m 1/2): 5153.608398 Right Ascen at Week(rad): 1.619852629 Argument of Perigee(rad): 0.8894159928 Mean Anom(rad): -1.945928408 Af0(s): -6.707701416e-05 Af1(s/s): -1.455192e-11 week: 363 ******** Week 363 almanac for PRN-28 ******** ID: 28 Health: 255 Eccentricity: 0.0004558563232 Time of Applicability(s): 589824 Orbital Inclination(rad): 0.9621019644 Rate of Right Ascen(r/s): -7.691748963e-09 SQRT(A) (m 1/2): 5153.766113 Right Ascen at Week(rad): -0.4843203538 Argument of Perigee(rad): -0.1495223056 Mean Anom(rad): 1.871854288 Af0(s): -0.0004491898926 Af1(s/s): 7.275958e-12 week: 363 ******** Week 363 almanac for PRN-29 ******** ID: 29 Health: 0 Eccentricity: 0.003452777863 Time of Applicability(s): 589824 Orbital Inclination(rad): 0.9612031475 Rate of Right Ascen(r/s): -8.000333246e-09 SQRT(A) (m 1/2): 5153.689453 Right Ascen at Week(rad): 1.709543317 Argument of Perigee(rad): 2.74708433 Mean Anom(rad): -2.09546869 Af0(s): -0.0002773521484 Af1(s/s): 7.275958e-12 week: 363 ******** Week 363 almanac for PRN-30 ******** ID: 30 Health: 0 Eccentricity: 0.008146286011 Time of Applicability(s): 589824 Orbital Inclination(rad): 0.9364617152 Rate of Right Ascen(r/s): -7.943188008e-09 SQRT(A) (m 1/2): 5153.695801 Right Ascen at Week(rad): -0.4682465122 Argument of Perigee(rad): -2.300938226 Mean Anom(rad): 1.214166392 Af0(s): 0.0001326466797 Af1(s/s): 1.455192e-11 week: 363 ******** Week 363 almanac for PRN-31 ******** ID: 31 Health: 0 Eccentricity: 0.01083517075 Time of Applicability(s): 589824 Orbital Inclination(rad): 0.9549533742 Rate of Right Ascen(r/s): -7.748894201e-09 SQRT(A) (m 1/2): 5153.535156 Right Ascen at Week(rad): -0.4345457482 Argument of Perigee(rad): 0.9397680883 Mean Anom(rad): 0.3309859412 Af0(s): -0.0001258636108 Af1(s/s): 3.637979e-12 week: 363 ******** Week 363 almanac for PRN-32 ******** ID: 32 Health: 0 Eccentricity: 0.009375095367 Time of Applicability(s): 589824 Orbital Inclination(rad): 0.9677764949 Rate of Right Ascen(r/s): -8.057478483e-09 SQRT(A) (m 1/2): 5153.691406 Right Ascen at Week(rad): -1.514947967 Argument of Perigee(rad): -1.986572532 Mean Anom(rad): -1.386880045 Af0(s): -2.034920654e-05 Af1(s/s): 1.818989e-11 week: 363